Starlink 35634

operational
NORAD ID: 66173 Int'l Des: 2025-240 Owner: SPXS Country: US Constellation: starlink
LEOCIRCULAR

About Starlink 35634

Description loading...

Live Position

Loading 3D Globe...

Upcoming Passes

Altitude History

Altitude vs Time

uPlot chart will show altitude changes over time

Two-Line Element Set

1 66173C 25240AD 25299.07618056 .00402030 00000+0 64876-3 0 2991
2 66173 53.1577 337.0905 0009020 266.8993 91.6893 16.02275384 19
Epoch: Oct 26, 2025 • Age: 113 hours

Current Status

Altitude 261.2 km
Velocity 7.75 km/s
Sub-Earth Point 23.67°N, 178.24°E
Launch Date Oct 25, 2025
Age 5 days
Type internet

Technical Details

Classification Payload
Mass 575.00 kg
Dry Mass 530.00 kg
Total Mass 575.00 kg
Length 0.30 m
Diameter 4.10 m
Span 29.00 m
Shape Box + pan
Manufacturer SPXS
Bus Type Starlink V2MO
Phase Status In Orbit
Owner/State SPXS/US

Large Constellations

Loading constellations...